Regional Weather Roundup
Issued by NWS Columbia, SC

Home | Current Version | Previous Version | Text Only | Print | Product List | Glossary On
Versions: 1 2 3 4 5 6 7 8 9 10 11 12 13 14 15 16 17 18 19 20 21 22 23 24 25 26 27 28 29 30 31 32 33 34 35 36 37 38 39 40 41 42 43 44 45 46 47 48 49 50
000
ASUS42 KCAE 260610
RWRCAE
REGIONAL WEATHER ROUNDUP
NATIONAL WEATHER SERVICE COLUMBIA SC
200 AM EDT FRI MAY 26 2017

NOTE: "FAIR" INDICATES FEW OR NO CLOUDS BELOW 12,000 FEET WITH NO
SIGNIFICANT WEATHER AND/OR OBSTRUCTIONS TO VISIBILITY.

NOT ALL STATIONS ARE QUALITY CONTROLLED BY THE NATIONAL
WEATHER SERVICE. USE DATA WITH CAUTION...ESPECIALLY
DEWPOINT OBSERVATIONS.

SCZ001>056-GAZ040-063>065-077-260700-
...UPSTATE SOUTH CAROLINA...

CITY           SKY/WX    TMP DP  RH WIND       PRES   REMARKS
ANDERSON       CLEAR     60  52  74 W7        29.90S
6HR MIN TEMP:  60; 6HR MAX TEMP:  69;

SPARTANBURG    CLEAR     57  50  77 SW6       29.87R
CLEMSON        CLEAR     59  51  75 W7        29.91R
6HR MIN TEMP:  59; 6HR MAX TEMP:  69;

GREENVILLE     CLEAR     61  51  70 W9        29.89R
6HR MIN TEMP:  61; 6HR MAX TEMP:  69;

GREENWOOD      CLEAR     56  50  80 SW7       29.92R
6HR MIN TEMP:  56; 6HR MAX TEMP:  69;

GREER          CLEAR     60  51  72 SW6       29.88R
6HR MIN TEMP:  59; 6HR MAX TEMP:  68;

ROCK HILL      CLEAR     60  52  74 W7        29.86R
6HR MIN TEMP:  59; 6HR MAX TEMP:  68;

CHESTER        CLEAR     59  50  72 SW3       29.87R
LAURENS        CLEAR     61  52  72 W6        29.89S


...CENTRAL SOUTH CAROLINA...

CITY           SKY/WX    TMP DP  RH WIND       PRES   REMARKS
COLUMBIA APT   CLEAR     61  52  72 W5        29.89R
6HR MIN TEMP:  60; 6HR MAX TEMP:  72;

COLUMBIA OWENS CLEAR     63  52  67 W6        29.90R
6HR MIN TEMP:  62; 6HR MAX TEMP:  74;

MCENTIRE ANGB  CLEAR     61  53  74 SW5       29.89R
6HR MIN TEMP:  61; 6HR MAX TEMP:  71;

ORANGEBURG     CLEAR     59  54  83 SW6       29.91R
6HR MIN TEMP:  59; 6HR MAX TEMP:  71;

SUMTER SHAW    CLEAR     62  52  69 SW8       29.86R
6HR MIN TEMP:  62; 6HR MAX TEMP:  71;

NEWBERRY       CLEAR     61  52  72 SW8       29.92R
AIKEN          FAIR      55  52  88 SW3       29.95S
BARNWELL       FAIR      59  55  88 CALM      29.92S
CAMDEN         FAIR      61  54  77 CALM      29.88R
LANCASTER      CLEAR     59  54  82 SW7       29.87R
WINNSBORO      CLEAR     61  52  72 SW7       29.88R


...EASTERN AND COASTAL SOUTH CAROLINA...

CITY           SKY/WX    TMP DP  RH WIND       PRES   REMARKS
MYRTLE BEACH   CLEAR     66  53  63 W13       29.88S
6HR MIN TEMP:  66; 6HR MAX TEMP:  72;

N MYRTLE BCH   CLEAR     67  54  63 W10       29.86R
6HR MIN TEMP:  67; 6HR MAX TEMP:  71;

CONWAY         FAIR      61  54  77 SW6       29.88R
HARTSVILLE     FAIR      59  52  77 SW5       29.86R
FLORENCE       CLEAR     62  54  74 SW8       29.87R
6HR MIN TEMP:  62; 6HR MAX TEMP:  72;

DARLINGTON     CLEAR     62  54  74 SW12      29.86R
6HR MIN TEMP:  62; 6HR MAX TEMP:  71;

CHARLESTON APT CLEAR     65  54  67 SW9       29.91S
6HR MIN TEMP:  64; 6HR MAX TEMP:  72;

MOUNT PLEASANT FAIR      66  57  72 CALM      29.91S
WALTERBORO     CLEAR     61  54  77 SW5       29.93S
BEAUFORT       CLEAR     65  55  70 W7        29.93S
6HR MIN TEMP:  64; 6HR MAX TEMP:  73;



...EASTERN GEORGIA...

CITY           SKY/WX    TMP DP  RH WIND       PRES   REMARKS
AUGUSTA BUSH F CLEAR     64  54  69 W10       29.92R
6HR MIN TEMP:  63; 6HR MAX TEMP:  74;

AUGUSTA DANIEL CLEAR     64  50  60 W6        29.93R
6HR MIN TEMP:  64; 6HR MAX TEMP:  73;

THOMSON        CLEAR     56  53  91 CALM      29.98S
6HR MIN TEMP:  55; 6HR MAX TEMP:  71;

WASHINGTON     FAIR      61  54  77 W6        29.93R
CLAXTON        FAIR     N/A N/A N/A CALM      29.95S
SYLVANIA       CLEAR     62  57  86 CALM      29.94S
6HR MIN TEMP:  60; 6HR MAX TEMP:  73;

STATESBORO     CLEAR     58  58 100 CALM      29.94S
6HR MIN TEMP:  58; 6HR MAX TEMP:  74;

SAVANNAH       CLEAR     62  53  72 W3        29.94S
6HR MIN TEMP:  62; 6HR MAX TEMP:  74;



...SOUTHERN NORTH CAROLINA...

CITY           SKY/WX    TMP DP  RH WIND       PRES   REMARKS
CHARLOTTE      CLEAR     61  51  70 SW9       29.84R
6HR MIN TEMP:  60; 6HR MAX TEMP:  68;

MONROE         LGT RAIN  59  51  75 SW9       29.84R
6HR MIN TEMP:  59; 6HR MAX TEMP:  68; 6HR PCP: TRACE;

WADESBORO      CLEAR     62  51  68 SW6       29.83R
6HR MIN TEMP:  62; 6HR MAX TEMP:  70;

ROCKINGHAM     CLEAR     62  54  73 SW9       29.83R
RUTHERFORDTON  CLEAR     62  50  63 SW5       29.86R
6HR MIN TEMP:  60; 6HR MAX TEMP:  65;

ASHEVILLE      MOCLDY    56  47  71 VRB3      29.90R
6HR MIN TEMP:  56; 6HR MAX TEMP:  63;


$$



USA.gov is the U.S. government's official web portal to all federal, state and local government web resources and services.